Location: Killarney
(45.9719°N, 81.5115°W)
Time: 07:22:04
(UTC-04:00)

ISS - Pass Details

Date: 26 April 2025
Orbit: 416 x 419 km, 51.6° (Epoch: 14 May)

Event Time Altitude Azimuth Distance (km) Brightness Sun altitude
Exits shadow 03:10:31 13° 89° (E) 1,329 -0.9 -25.7°
Drops below altitude 10° 03:11:01 10° 83° (E) 1,494 -0.6 -25.7°
Sets 03:13:22 0° 69° (ENE) 2,361 0.8 -25.5°
